Météo par heure à Viedma

Ce jour, 1 Octobre, Jeudi

Heure Température Précipitation Vent Pression Humidité
00:00 +7°C° 0 mm 4 m/s 751 mmHg 67%
01:00 +8°C° 0 mm 5 m/s 751 mmHg 62%
02:00 +8°C° 0 mm 5 m/s 751 mmHg 57%
03:00 +8°C° 0 mm 6 m/s 752 mmHg 55%
04:00 +8°C° 0 mm 6 m/s 752 mmHg 52%
05:00 +7°C° 0 mm 6 m/s 753 mmHg 50%
06:00 +8°C° 0 mm 6 m/s 754 mmHg 52%
07:00 +8°C° 0 mm 6 m/s 754 mmHg 53%
08:00 +9°C° 0 mm 6 m/s 755 mmHg 55%
09:00 +9°C° 0 mm 6 m/s 755 mmHg 52%
10:00 +9°C° 0 mm 6 m/s 756 mmHg 49%
11:00 +10°C° 0 mm 7 m/s 757 mmHg 46%
12:00 +10°C° 0 mm 7 m/s 757 mmHg 43%
13:00 +10°C° 0 mm 7 m/s 757 mmHg 40%
14:00 +10°C° 0 mm 8 m/s 757 mmHg 37%
15:00 +9°C° 0 mm 7 m/s 758 mmHg 41%
16:00 +8°C° 0 mm 7 m/s 759 mmHg 45%
17:00 +6°C° 0 mm 7 m/s 759 mmHg 48%
18:00 +5°C° 0 mm 6 m/s 760 mmHg 48%
19:00 +4°C° 0 mm 6 m/s 761 mmHg 47%
20:00 +3°C° 0 mm 5 m/s 761 mmHg 47%
21:00 +3°C° 0 mm 5 m/s 762 mmHg 47%
22:00 +3°C° 0 mm 6 m/s 763 mmHg 47%
23:00 +3°C° 0 mm 6 m/s 763 mmHg 47%

Demain, 2 Octobre, Vendredi

Heure Température Précipitation Vent Pression Humidité
00:00 +3°C° 0 mm 5 m/s 764 mmHg 49%
01:00 +3°C° 0 mm 5 m/s 764 mmHg 51%
02:00 +4°C° 0 mm 4 m/s 765 mmHg 53%
03:00 +3°C° 0 mm 4 m/s 765 mmHg 56%
04:00 +3°C° 0 mm 4 m/s 766 mmHg 58%
05:00 +3°C° 0 mm 4 m/s 766 mmHg 61%
06:00 +3°C° 0 mm 5 m/s 767 mmHg 56%
07:00 +4°C° 0 mm 6 m/s 768 mmHg 52%
08:00 +5°C° 0 mm 7 m/s 769 mmHg 48%
09:00 +6°C° 0 mm 7 m/s 769 mmHg 44%
10:00 +8°C° 0 mm 7 m/s 770 mmHg 41%
11:00 +9°C° 0 mm 7 m/s 771 mmHg 38%
12:00 +9°C° 0 mm 7 m/s 771 mmHg 38%
13:00 +9°C° 0 mm 7 m/s 771 mmHg 38%
14:00 +9°C° 0 mm 7 m/s 771 mmHg 39%
15:00 +8°C° 0 mm 7 m/s 772 mmHg 42%
16:00 +8°C° 0 mm 7 m/s 772 mmHg 46%
17:00 +6°C° 0 mm 7 m/s 772 mmHg 50%
18:00 +4°C° 0 mm 6 m/s 773 mmHg 58%
19:00 +3°C° 0 mm 5 m/s 773 mmHg 65%
20:00 +3°C° 0 mm 4 m/s 774 mmHg 73%
21:00 +2°C° 0 mm 3 m/s 774 mmHg 77%
22:00 +2°C° 0 mm 3 m/s 774 mmHg 78%
23:00 +2°C° 0 mm 2 m/s 774 mmHg 79%

Après-demain, 3 Octobre, Samedi

Heure Température Précipitation Vent Pression Humidité
00:00 +2°C° 0 mm 2 m/s 774 mmHg 80%
01:00 +2°C° 0 mm 1 m/s 774 mmHg 81%
02:00 +1°C° 0 mm 1 m/s 774 mmHg 82%
03:00 +1°C° 0 mm 1 m/s 774 mmHg 82%
04:00 +1°C° 0 mm 1 m/s 774 mmHg 81%
05:00 +1°C° 0 mm 1 m/s 774 mmHg 81%
06:00 +3°C° 0 mm 1 m/s 774 mmHg 71%
07:00 +4°C° 0 mm 2 m/s 774 mmHg 61%
08:00 +7°C° 0 mm 2 m/s 774 mmHg 51%
09:00 +8°C° 0 mm 2 m/s 774 mmHg 45%
10:00 +9°C° 0 mm 2 m/s 773 mmHg 39%
11:00 +12°C° 0 mm 2 m/s 773 mmHg 33%
12:00 +11°C° 0 mm 3 m/s 773 mmHg 33%
13:00 +12°C° 0 mm 4 m/s 773 mmHg 33%
14:00 +12°C° 0 mm 5 m/s 772 mmHg 33%
15:00 +10°C° 0 mm 6 m/s 772 mmHg 36%
16:00 +9°C° 0 mm 6 m/s 771 mmHg 40%
17:00 +8°C° 0 mm 7 m/s 771 mmHg 43%
18:00 +7°C° 0 mm 6 m/s 771 mmHg 49%
19:00 +6°C° 0 mm 5 m/s 771 mmHg 55%
20:00 +4°C° 0 mm 4 m/s 771 mmHg 61%
21:00 +4°C° 0 mm 4 m/s 771 mmHg 64%
22:00 +4°C° 0 mm 4 m/s 771 mmHg 67%
23:00 +4°C° 0 mm 3 m/s 771 mmHg 70%

4 Octobre, Dimanche

Heure Température Précipitation Vent Pression Humidité
00:00 +3°C° 0 mm 3 m/s 770 mmHg 74%
01:00 +3°C° 0 mm 3 m/s 770 mmHg 79%
02:00 +3°C° 0 mm 3 m/s 769 mmHg 84%
03:00 +4°C° 0 mm 2 m/s 769 mmHg 84%
04:00 +4°C° 0 mm 2 m/s 769 mmHg 84%
05:00 +4°C° 0 mm 2 m/s 769 mmHg 84%
06:00 +5°C° 0 mm 3 m/s 769 mmHg 77%
07:00 +7°C° 0 mm 3 m/s 769 mmHg 70%
08:00 +7°C° 0 mm 4 m/s 768 mmHg 62%
09:00 +7°C° 0.1 mm 4 m/s 768 mmHg 63%
10:00 +9°C° 0.1 mm 3 m/s 768 mmHg 64%
11:00 +9°C° 0.1 mm 3 m/s 767 mmHg 65%
12:00 +9°C° 0.1 mm 3 m/s 767 mmHg 64%
13:00 +9°C° 0.1 mm 3 m/s 766 mmHg 63%
14:00 +10°C° 0.1 mm 4 m/s 766 mmHg 62%
15:00 +8°C° 0.1 mm 4 m/s 765 mmHg 64%
16:00 +7°C° 0.1 mm 5 m/s 765 mmHg 67%
17:00 +7°C° 0.1 mm 5 m/s 765 mmHg 69%
18:00 +6°C° 0 mm 5 m/s 765 mmHg 74%
19:00 +5°C° 0 mm 4 m/s 765 mmHg 79%
20:00 +5°C° 0 mm 4 m/s 765 mmHg 83%
21:00 +4°C° 0 mm 4 m/s 764 mmHg 85%
22:00 +4°C° 0 mm 4 m/s 764 mmHg 87%
23:00 +4°C° 0 mm 4 m/s 764 mmHg 89%

5 Octobre, Lundi

Heure Température Précipitation Vent Pression Humidité
00:00 +3°C° 0 mm 3 m/s 763 mmHg 91%
01:00 +3°C° 0 mm 3 m/s 763 mmHg 92%
02:00 +2°C° 0 mm 3 m/s 763 mmHg 93%
03:00 +2°C° 0 mm 3 m/s 762 mmHg 94%
04:00 +2°C° 0 mm 3 m/s 762 mmHg 94%
05:00 +2°C° 0 mm 3 m/s 762 mmHg 94%
06:00 +4°C° 0 mm 4 m/s 762 mmHg 85%
07:00 +6°C° 0 mm 4 m/s 761 mmHg 77%
08:00 +8°C° 0 mm 5 m/s 761 mmHg 68%
09:00 +10°C° 0 mm 5 m/s 761 mmHg 58%
10:00 +13°C° 0 mm 6 m/s 761 mmHg 48%
11:00 +15°C° 0 mm 6 m/s 760 mmHg 38%
12:00 +16°C° 0 mm 6 m/s 759 mmHg 35%
13:00 +17°C° 0 mm 7 m/s 759 mmHg 32%
14:00 +20°C° 0 mm 7 m/s 758 mmHg 29%
15:00 +18°C° 0 mm 7 m/s 758 mmHg 29%
16:00 +19°C° 0 mm 6 m/s 757 mmHg 30%
17:00 +19°C° 0 mm 6 m/s 757 mmHg 31%
18:00 +16°C° 0 mm 6 m/s 756 mmHg 36%
19:00 +14°C° 0 mm 6 m/s 756 mmHg 41%
20:00 +12°C° 0 mm 5 m/s 756 mmHg 47%
21:00 +11°C° 0 mm 6 m/s 756 mmHg 53%
22:00 +10°C° 0 mm 6 m/s 756 mmHg 59%
23:00 +9°C° 0 mm 7 m/s 756 mmHg 65%

6 Octobre, Mardi

Heure Température Précipitation Vent Pression Humidité
00:00 +9°C° 0 mm 7 m/s 756 mmHg 65%
01:00 +9°C° 0 mm 6 m/s 755 mmHg 65%
02:00 +9°C° 0 mm 6 m/s 755 mmHg 65%
03:00 +8°C° 0 mm 6 m/s 755 mmHg 67%
04:00 +8°C° 0 mm 6 m/s 755 mmHg 70%
05:00 +8°C° 0 mm 6 m/s 755 mmHg 73%
06:00 +9°C° 0 mm 7 m/s 755 mmHg 65%
07:00 +11°C° 0 mm 8 m/s 755 mmHg 58%
08:00 +13°C° 0 mm 9 m/s 755 mmHg 51%
09:00 +16°C° 0 mm 9 m/s 755 mmHg 44%
10:00 +18°C° 0 mm 8 m/s 755 mmHg 38%
11:00 +21°C° 0 mm 8 m/s 754 mmHg 31%
12:00 +22°C° 0 mm 8 m/s 754 mmHg 29%
13:00 +23°C° 0 mm 7 m/s 754 mmHg 26%
14:00 +24°C° 0 mm 6 m/s 753 mmHg 23%
15:00 +25°C° 0 mm 5 m/s 753 mmHg 23%
16:00 +25°C° 0 mm 5 m/s 753 mmHg 22%
17:00 +25°C° 0 mm 4 m/s 753 mmHg 22%
18:00 +21°C° 0 mm 4 m/s 753 mmHg 27%
19:00 +18°C° 0 mm 3 m/s 754 mmHg 33%
20:00 +14°C° 0 mm 3 m/s 755 mmHg 39%
21:00 +13°C° 0 mm 5 m/s 755 mmHg 46%
22:00 +11°C° 0 mm 6 m/s 756 mmHg 53%
23:00 +10°C° 0 mm 8 m/s 757 mmHg 61%
Voir plus

We Need Your Consent

Meteoprog and our Service Providers may store and access personal data such as cookies, device identifiers or other similar technologies on your device and process such data to personalise content and ads, as well as provide social media features and to analyse the traffic.

  • Store and/or access information on your device

    Cookies, device identifiers or other information can be stored or accessed on your device for the purposes indicated above.

  • Personalised ads and content, ad and content measurement, audience insights, and products development

    Ads and content can be personalised based on a profile. More data can be added to better personalise ads and content. Ad and content performance can be measured. Insights about the audience who saw the ads and content can be derived. Such data can be used to develop or improve user’s experience, systems and software.

By clicking ‘I Agree’ you will allow the use of indicated cookies, device identifiers, web beacons or other similar technologies. Your settings can be changed in the browser on your device.

For certain purposes, legitimate interests may be relied on, rather than consent. You can read more about this in our Privacy and Cookie Policy.